Location: Boleita
(10.4833°N, 66.8167°W)
Time: 14:22:20
(UTC+00:00)

Cosmos 2297 - Pass Details

Date: 03 August 2024
Orbit: 837 x 856 km, 71.0° (Epoch: 14 September)

Event Time Altitude Azimuth Distance (km) Brightness Sun altitude
Rises 23:17:20 0° 184° (S) 3,416 6.7 -7.2°
Reaches altitude 10° 23:19:51 10° 179° (S) 2,479 5.9 -7.8°
Maximum altitude 23:25:21 51° 105° (ESE) 1,064 3.9 -9.1°
Drops below altitude 10° 23:30:50 10° 30° (NNE) 2,471 6.0 -10.3°
Sets 23:33:20 0° 25° (NNE) 3,403 6.8 -10.9°
